Time,TemperatureF,DewpointF,PressureIn,WindDirection,WindDirectionDegrees,WindSpeedMPH,WindSpeedGustMPH,Humidity,HourlyPrecipIn,Conditions,Clouds,dailyrainin,SoftwareType,DateUTC
2013-01-05 00:14:00,59.7,60.0,30.27,NNE,29,6.0,7.0,100,0.00,,,0.00,weatherlink.com 1.10,2013-01-05 05:14:00,
2013-01-05 00:29:00,59.5,60.0,30.27,ENE,65,7.0,8.0,100,0.00,,,0.00,weatherlink.com 1.10,2013-01-05 05:29:00,
2013-01-05 00:44:00,59.7,60.0,30.27,NE,34,5.0,7.0,100,0.00,,,0.00,weatherlink.com 1.10,2013-01-05 05:44:00,
2013-01-05 00:59:00,59.6,60.0,30.27,NE,54,8.0,9.0,100,0.00,,,0.00,weatherlink.com 1.10,2013-01-05 05:59:00,
2013-01-05 01:14:00,59.7,60.0,30.27,NNE,30,7.0,10.0,100,0.00,,,0.00,weatherlink.com 1.10,2013-01-05 06:14:00,
2013-01-05 01:29:00,59.6,60.0,30.27,NE,40,7.0,10.0,100,0.00,,,0.00,weatherlink.com 1.10,2013-01-05 06:29:00,
2013-01-05 01:44:00,59.8,60.0,30.26,NE,46,6.0,10.0,100,0.00,,,0.00,weatherlink.com 1.10,2013-01-05 06:44:00,
2013-01-05 01:59:00,59.8,60.0,30.26,East,88,7.0,9.0,100,0.00,,,0.00,weatherlink.com 1.10,2013-01-05 06:59:00,
2013-01-05 02:14:00,59.9,60.0,30.25,NE,42,7.0,10.0,100,0.00,,,0.00,weatherlink.com 1.10,2013-01-05 07:14:00,
2013-01-05 02:29:00,59.9,60.0,30.25,NE,35,8.0,10.0,100,0.00,,,0.00,weatherlink.com 1.10,2013-01-05 07:29:00,
2013-01-05 02:44:00,59.4,59.0,30.25,NE,34,13.0,15.0,100,0.00,,,0.00,weatherlink.com 1.10,2013-01-05 07:44:00,
2013-01-05 02:59:00,58.5,59.0,30.25,NE,35,9.0,12.0,100,0.00,,,0.00,weatherlink.com 1.10,2013-01-05 07:59:00,
2013-01-05 03:14:00,58.2,58.0,30.25,NE,51,8.0,12.0,100,0.00,,,0.00,weatherlink.com 1.10,2013-01-05 08:14:00,
2013-01-05 03:29:00,58.3,58.0,30.25,NNE,32,11.0,11.0,100,0.00,,,0.00,weatherlink.com 1.10,2013-01-05 08:29:00,
2013-01-05 03:44:00,57.8,58.0,30.26,ENE,62,4.0,9.0,100,0.00,,,0.00,weatherlink.com 1.10,2013-01-05 08:44:00,
2013-01-05 03:59:00,57.3,57.0,30.25,NE,43,6.0,10.0,100,0.00,,,0.00,weatherlink.com 1.10,2013-01-05 08:59:00,
2013-01-05 04:14:00,57.0,57.0,30.26,NE,49,4.0,9.0,100,0.00,,,0.00,weatherlink.com 1.10,2013-01-05 09:14:00,
2013-01-05 04:29:00,57.1,57.0,30.25,NE,46,5.0,12.0,100,0.00,,,0.00,weatherlink.com 1.10,2013-01-05 09:29:00,
2013-01-05 04:44:00,56.6,57.0,30.25,ENE,68,5.0,9.0,100,0.00,,,0.00,weatherlink.com 1.10,2013-01-05 09:44:00,
2013-01-05 04:59:00,56.8,57.0,30.26,NNE,27,7.0,10.0,100,0.00,,,0.00,weatherlink.com 1.10,2013-01-05 09:59:00,
2013-01-05 05:14:00,56.6,57.0,30.26,ENE,69,10.0,13.0,100,0.00,,,0.00,weatherlink.com 1.10,2013-01-05 10:14:00,
2013-01-05 05:29:00,56.4,56.0,30.26,NE,40,9.0,13.0,100,0.00,,,0.00,weatherlink.com 1.10,2013-01-05 10:29:00,
2013-01-05 05:44:00,56.3,56.0,30.26,NE,43,5.0,11.0,100,0.00,,,0.00,weatherlink.com 1.10,2013-01-05 10:44:00,
2013-01-05 05:59:00,56.4,56.0,30.27,ENE,65,4.0,11.0,100,0.00,,,0.00,weatherlink.com 1.10,2013-01-05 10:59:00,
2013-01-05 06:14:00,56.0,56.0,30.27,ENE,59,8.0,12.0,100,0.00,,,0.00,weatherlink.com 1.10,2013-01-05 11:14:00,
2013-01-05 06:29:00,56.2,56.0,30.27,ENE,63,7.0,10.0,99,0.00,,,0.00,weatherlink.com 1.10,2013-01-05 11:29:00,
2013-01-05 06:44:00,56.2,56.0,30.28,ENE,76,9.0,9.0,99,0.00,,,0.00,weatherlink.com 1.10,2013-01-05 11:44:00,
2013-01-05 07:00:00,56.4,56.0,30.28,NE,38,6.0,9.0,97,0.00,,,0.00,weatherlink.com 1.10,2013-01-05 12:00:00,
2013-01-05 07:15:00,57.2,56.0,30.28,NE,49,6.0,12.0,97,0.00,,,0.00,weatherlink.com 1.10,2013-01-05 12:15:00,
2013-01-05 07:30:00,57.2,56.0,30.29,ENE,63,7.0,11.0,96,0.00,,,0.00,weatherlink.com 1.10,2013-01-05 12:30:00,
2013-01-05 07:45:00,57.2,56.0,30.29,ENE,68,8.0,12.0,96,0.00,,,0.00,weatherlink.com 1.10,2013-01-05 12:45:00,
2013-01-05 08:00:00,56.8,55.0,30.29,ENE,60,8.0,11.0,95,0.00,,,0.00,weatherlink.com 1.10,2013-01-05 13:00:00,
2013-01-05 08:15:00,57.1,56.0,30.30,ENE,72,10.0,11.0,96,0.00,,,0.00,weatherlink.com 1.10,2013-01-05 13:15:00,
2013-01-05 08:30:00,57.3,56.0,30.30,ENE,74,9.0,13.0,94,0.00,,,0.00,weatherlink.com 1.10,2013-01-05 13:30:00,
2013-01-05 08:45:00,57.8,56.0,30.30,NE,44,7.0,12.0,94,0.00,,,0.00,weatherlink.com 1.10,2013-01-05 13:45:00,
2013-01-05 09:00:00,58.2,56.0,30.30,NE,43,8.0,13.0,93,0.00,,,0.00,weatherlink.com 1.10,2013-01-05 14:00:00,
2013-01-05 09:15:00,59.0,57.0,30.30,NE,34,8.0,12.0,93,0.00,,,0.00,weatherlink.com 1.10,2013-01-05 14:15:00,
2013-01-05 09:30:00,59.4,57.0,30.31,NNE,33,15.0,15.0,90,0.00,,,0.00,weatherlink.com 1.10,2013-01-05 14:30:00,
2013-01-05 09:45:00,59.8,57.0,30.31,NE,49,6.0,12.0,91,0.00,,,0.00,weatherlink.com 1.10,2013-01-05 14:45:00,
2013-01-05 10:00:00,59.9,56.0,30.30,ENE,60,7.0,18.0,88,0.00,,,0.00,weatherlink.com 1.10,2013-01-05 15:00:00,
2013-01-05 10:15:00,60.8,58.0,30.30,East,83,13.0,16.0,91,0.00,,,0.00,weatherlink.com 1.10,2013-01-05 15:15:00,
2013-01-05 10:30:00,61.5,58.0,30.30,East,80,13.0,15.0,88,0.00,,,0.00,weatherlink.com 1.10,2013-01-05 15:30:00,
2013-01-05 10:45:00,62.2,58.0,30.29,ENE,60,11.0,15.0,86,0.00,,,0.00,weatherlink.com 1.10,2013-01-05 15:45:00,
2013-01-05 11:00:00,63.1,59.0,30.29,ENE,72,9.0,15.0,87,0.00,,,0.00,weatherlink.com 1.10,2013-01-05 16:00:00,
2013-01-05 11:15:00,63.7,59.0,30.28,ENE,70,13.0,13.0,84,0.00,,,0.00,weatherlink.com 1.10,2013-01-05 16:15:00,
2013-01-05 11:30:00,64.9,61.0,30.27,NE,36,6.0,12.0,86,0.00,,,0.00,weatherlink.com 1.10,2013-01-05 16:30:00,
2013-01-05 11:45:00,65.5,60.0,30.26,East,98,5.0,13.0,82,0.00,,,0.00,weatherlink.com 1.10,2013-01-05 16:45:00,
2013-01-05 12:00:00,66.4,60.0,30.26,ENE,73,4.0,13.0,81,0.00,,,0.00,weatherlink.com 1.10,2013-01-05 17:00:00,
2013-01-05 12:15:00,67.2,61.0,30.25,ENE,74,5.0,12.0,81,0.00,,,0.00,weatherlink.com 1.10,2013-01-05 17:15:00,
2013-01-05 12:30:00,68.4,62.0,30.23,ENE,76,7.0,10.0,80,0.00,,,0.00,weatherlink.com 1.10,2013-01-05 17:30:00,
2013-01-05 12:45:00,69.7,62.0,30.22,East,86,5.0,13.0,76,0.00,,,0.00,weatherlink.com 1.10,2013-01-05 17:45:00,
2013-01-05 13:00:00,70.6,62.0,30.21,ENE,74,7.0,9.0,75,0.00,,,0.00,weatherlink.com 1.10,2013-01-05 18:00:00,
2013-01-05 13:15:00,71.7,63.0,30.21,ESE,108,7.0,9.0,73,0.00,,,0.00,weatherlink.com 1.10,2013-01-05 18:15:00,
2013-01-05 13:31:00,72.3,63.0,30.19,ESE,116,5.0,10.0,73,0.00,,,0.00,weatherlink.com 1.10,2013-01-05 18:31:00,
2013-01-05 13:46:00,72.9,64.0,30.19,ESE,115,4.0,10.0,73,0.00,,,0.00,weatherlink.com 1.10,2013-01-05 18:46:00,
2013-01-05 14:01:00,73.3,64.0,30.19,East,79,9.0,11.0,73,0.00,,,0.00,weatherlink.com 1.10,2013-01-05 19:01:00,
2013-01-05 14:16:00,73.1,63.0,30.19,NNE,27,6.0,13.0,71,0.00,,,0.00,weatherlink.com 1.10,2013-01-05 19:16:00,
2013-01-05 14:31:00,73.6,64.0,30.18,NE,51,8.0,10.0,73,0.00,,,0.00,weatherlink.com 1.10,2013-01-05 19:31:00,
2013-01-05 14:46:00,73.7,65.0,30.18,ENE,75,5.0,10.0,73,0.00,,,0.00,weatherlink.com 1.10,2013-01-05 19:46:00,
2013-01-05 15:01:00,73.6,66.0,30.18,ENE,63,5.0,11.0,76,0.00,,,0.00,weatherlink.com 1.10,2013-01-05 20:01:00,
2013-01-05 15:16:00,73.8,65.0,30.19,NE,49,5.0,10.0,75,0.00,,,0.00,weatherlink.com 1.10,2013-01-05 20:16:00,
2013-01-05 15:31:00,74.1,66.0,30.19,NE,44,4.0,10.0,75,0.00,,,0.00,weatherlink.com 1.10,2013-01-05 20:31:00,
2013-01-05 15:46:00,74.0,64.0,30.19,NE,43,5.0,8.0,72,0.00,,,0.00,weatherlink.com 1.10,2013-01-05 20:46:00,
2013-01-05 16:16:00,73.8,65.0,30.19,NNE,25,6.0,8.0,74,0.00,,,0.00,weatherlink.com 1.10,2013-01-05 21:16:00,
2013-01-05 16:31:00,73.5,66.0,30.19,NE,42,5.0,7.0,76,0.00,,,0.00,weatherlink.com 1.10,2013-01-05 21:31:00,
2013-01-05 16:46:00,73.4,65.0,30.20,NE,43,5.0,6.0,74,0.00,,,0.00,weatherlink.com 1.10,2013-01-05 21:46:00,
2013-01-05 17:01:00,73.2,65.0,30.20,NNE,31,6.0,7.0,76,0.00,,,0.00,weatherlink.com 1.10,2013-01-05 22:01:00,
2013-01-05 17:16:00,72.8,65.0,30.20,NE,38,3.0,6.0,76,0.00,,,0.00,weatherlink.com 1.10,2013-01-05 22:16:00,
2013-01-05 17:31:00,72.6,65.0,30.20,NE,38,4.0,5.0,78,0.00,,,0.00,weatherlink.com 1.10,2013-01-05 22:31:00,
2013-01-05 17:46:00,72.4,65.0,30.20,NE,45,3.0,5.0,78,0.00,,,0.00,weatherlink.com 1.10,2013-01-05 22:46:00,
2013-01-05 18:01:00,72.1,65.0,30.20,NNE,30,4.0,5.0,79,0.00,,,0.00,weatherlink.com 1.10,2013-01-05 23:01:00,
2013-01-05 18:16:00,71.6,65.0,30.20,NNE,26,3.0,5.0,80,0.00,,,0.00,weatherlink.com 1.10,2013-01-05 23:16:00,
2013-01-05 18:31:00,71.6,66.0,30.21,NNE,32,4.0,5.0,81,0.00,,,0.00,weatherlink.com 1.10,2013-01-05 23:31:00,
2013-01-05 18:46:00,71.3,66.0,30.22,NNE,30,5.0,6.0,82,0.00,,,0.00,weatherlink.com 1.10,2013-01-05 23:46:00,
2013-01-05 19:01:00,71.1,65.0,30.22,NNE,16,4.0,6.0,82,0.00,,,0.00,weatherlink.com 1.10,2013-01-06 00:01:00,
2013-01-05 19:16:00,70.8,65.0,30.23,NNE,31,6.0,7.0,83,0.00,,,0.00,weatherlink.com 1.10,2013-01-06 00:16:00,
2013-01-05 19:31:00,70.4,65.0,30.22,NE,40,5.0,7.0,82,0.00,,,0.00,weatherlink.com 1.10,2013-01-06 00:31:00,
2013-01-05 19:46:00,70.2,65.0,30.22,NE,41,5.0,6.0,82,0.00,,,0.00,weatherlink.com 1.10,2013-01-06 00:46:00,
2013-01-05 20:01:00,70.1,65.0,30.23,NE,49,4.0,7.0,84,0.00,,,0.00,weatherlink.com 1.10,2013-01-06 01:01:00,
2013-01-05 20:16:00,70.3,66.0,30.24,East,96,5.0,8.0,86,0.00,,,0.00,weatherlink.com 1.10,2013-01-06 01:16:00,
2013-01-05 20:31:00,70.0,65.0,30.24,East,82,6.0,10.0,85,0.00,,,0.00,weatherlink.com 1.10,2013-01-06 01:31:00,
2013-01-05 20:46:00,69.5,65.0,30.24,East,88,6.0,9.0,85,0.00,,,0.00,weatherlink.com 1.10,2013-01-06 01:46:00,
2013-01-05 21:01:00,69.4,65.0,30.24,East,80,6.0,9.0,85,0.00,,,0.00,weatherlink.com 1.10,2013-01-06 02:01:00,
2013-01-05 21:16:00,69.0,65.0,30.24,ENE,70,9.0,11.0,87,0.00,,,0.00,weatherlink.com 1.10,2013-01-06 02:16:00,
2013-01-05 21:31:00,68.8,65.0,30.24,ENE,66,5.0,10.0,88,0.00,,,0.00,weatherlink.com 1.10,2013-01-06 02:31:00,
2013-01-05 21:46:00,68.4,65.0,30.24,East,82,7.0,8.0,88,0.00,,,0.00,weatherlink.com 1.10,2013-01-06 02:46:00,
2013-01-05 22:01:00,68.3,66.0,30.24,NE,48,5.0,8.0,91,0.00,,,0.00,weatherlink.com 1.10,2013-01-06 03:01:00,
2013-01-05 22:16:00,67.7,65.0,30.24,ENE,67,3.0,5.0,90,0.00,,,0.00,weatherlink.com 1.10,2013-01-06 03:16:00,
2013-01-05 22:31:00,67.6,65.0,30.23,NE,46,3.0,7.0,91,0.00,,,0.00,weatherlink.com 1.10,2013-01-06 03:31:00,
2013-01-05 22:46:00,67.1,65.0,30.23,ENE,61,3.0,5.0,91,0.00,,,0.00,weatherlink.com 1.10,2013-01-06 03:46:00,
2013-01-05 23:01:00,67.1,65.0,30.23,NE,38,1.0,5.0,92,0.00,,,0.00,weatherlink.com 1.10,2013-01-06 04:01:00,
2013-01-05 23:16:00,67.4,65.0,30.22,East,92,3.0,6.0,92,0.00,,,0.00,weatherlink.com 1.10,2013-01-06 04:16:00,
2013-01-05 23:31:00,66.5,64.0,30.22,ESE,107,2.0,5.0,91,0.00,,,0.00,weatherlink.com 1.10,2013-01-06 04:31:00,
2013-01-05 23:46:00,66.7,65.0,30.22,East,84,5.0,7.0,93,0.00,,,0.00,weatherlink.com 1.10,2013-01-06 04:46:00,